User: anonymous   Login
Location: Unspecified
(0.0000°N, 0.0000°E)
Time: 12:11:48
(UTC+00:00)
Language:

USA 186 - Orbit

View from above orbital plane
View from above orbital plane
View from above satellite
View from above satellite

Ground track
Ground track

The orbit data is extracted from the following two-line orbital elements,

1 28888U 05042A   18137.09124047 0.00015000  00000-0  82675-4 0    03
2 28888  96.8583 176.1846 0132904 299.7514  60.2484 15.67864305    03
Epoch (UTC): 17 May 2018 02:11:23
Eccentricity: 0.0132904
inclination: 96.8583°
perigee height: 275 km
apogee height: 454 km
right ascension of ascending node: 176.1846°
argument of perigee: 299.7514°
revolutions per day: 15.67864305
mean anomaly at epoch: 60.2484°
orbit number at epoch: 0

The dashed part of the orbit path shows where the satellite is in the earth's shadow,  

DLR